Wind_Speed
46 46 46 45 44 44 43 41 39 38 38 38 38 38 39 40 40 40 40 40 40 41 41 42 42 42 43 43 45 47 49 50 51 53 54 56 57 57 58 58 57 56 56 56 57 58 59 59 60 61 62 64 64 65 66 67 67 68 69 69 69 69 69 69 69 69 69 68 66 65 64 63 64 65 67 66 63 66 68 68 69 69 70 72 74 76 78 79
45 45 44 43 43 42 42 42 41 40 39 39 38 39 41 42 42 41 41 41 42 42 42 43 43 43 44 46 48 50 51 53 54 55 57 57 58 58 58 56 55 55 56 57 59 60 61 62 63 64 65 66 67 68 68 68 68 67 66 65 63 62 61 61 60 60 59 58 56 55 55 54 55 58 60 58 54 56 59 59 59 60 61 62 64 66 67 68
45 44 42 41 41 41 42 42 41 40 40 40 41 41 42 43 42 41 42 42 43 43 43 43 43 44 46 48 50 52 54 55 56 57 58 58 58 57 56 55 56 57 58 60 61 62 63 64 66 67 67 68 68 67 66 64 62 60 58 56 55 53 53 53 53 52 51 51 51 51 50 49 52 54 56 54 52 53 55 56 56 55 56 56 57 59 60 61
43 41 40 39 39 39 40 40 40 40 40 42 43 43 43 43 42 42 42 43 43 43 43 44 45 47 49 51 53 55 56 57 57 58 58 57 56 55 55 56 58 60 61 62 63 64 66 67 68 67 66 65 63 60 57 55 53 52 50 49 48 48 49 49 49 48 48 49 50 51 50 50 52 54 55 56 55 55 56 58 58 57 57 57 58 58 59 60
41 40 38 37 37 38 38 39 39 39 39 40 42 43 43 43 42 42 42 42 43 43 44 46 48 50 52 54 55 56 57 57 57 57 56 55 55 55 57 59 60 62 63 64 65 67 67 67 65 62 59 56 54 51 49 48 47 46 46 46 46 46 47 48 48 48 48 49 51 53 53 53 55 56 58 59 60 61 61 62 62 63 63 63 63 63 63 64
40 39 38 37 37 37 38 38 38 38 38 38 39 40 41 42 43 43 42 42 43 45 47 49 51 52 54 55 56 57 57 57 56 54 54 55 56 58 59 61 62 64 65 66 66 65 63 60 56 53 50 48 47 46 45 45 45 45 45 46 46 48 49 50 50 50 51 53 54 56 57 58 58 60 61 63 64 65 66 66 66 67 68 68 69 69 69 69
39 38 37 37 37 37 37 37 37 37 37 36 37 38 40 41 41 42 42 43 44 46 49 51 52 54 55 56 56 56 55 54 53 53 55 57 59 60 61 63 64 66 65 64 61 57 53 50 47 46 44 44 44 43 44 44 45 45 47 48 49 51 52 53 54 55 55 57 58 60 61 62 63 64 65 66 68 68 69 70 71 71 72 73 73 74 74 74
38 37 36 36 36 36 36 36 36 35 35 35 36 37 38 39 40 41 43 44 46 48 50 52 53 55 55 55 54 53 52 52 54 56 58 59 60 62 64 65 64 62 59 54 50 47 45 43 42 42 42 43 43 44 45 46 47 49 50 52 54 55 57 58 59 59 60 61 63 64 65 67 68 70 71 71 72 73 74 74 75 76 76 77 78 78 79 79
36 36 35 35 35 35 35 35 34 34 34 34 35 36 37 39 40 42 44 46 48 50 51 53 53 54 53 52 51 51 52 54 56 58 59 61 63 63 63 60 57 52 48 45 42 41 40 40 41 42 43 44 45 47 48 50 51 53 54 56 58 59 61 63 64 64 65 66 67 68 69 71 73 75 75 77 78 78 79 79 80 80 81 81 82 83 83 84
36 35 35 35 34 34 34 33 33 33 33 34 35 37 38 40 41 44 46 48 49 51 51 51 50 50 49 50 51 53 55 57 58 60 61 61 60 57 53 49 45 42 40 39 39 39 40 41 43 45 46 48 50 51 53 54 56 57 59 61 62 64 66 67 69 70 70 71 72 73 74 75 77 79 80 81 82 83 84 84 85 85 85 86 86 87 88 89
35 35 34 33 33 32 32 32 32 33 34 35 36 37 39 41 44 46 47 48 49 49 48 47 47 48 49 51 53 55 57 58 59 59 56 53 49 45 41 39 38 37 37 38 40 41 43 45 47 48 50 52 54 56 58 59 60 62 63 65 66 68 69 71 73 74 75 75 76 77 77 78 81 82 83 84 85 86 87 88 88 89 89 89 90 91 91 92
33 33 32 32 31 31 31 31 32 33 34 35 37 39 41 43 45 46 47 46 45 44 45 46 47 50 51 53 55 57 57 56 53 49 44 40 37 36 35 36 36 38 39 41 43 45 47 49 51 53 54 56 58 59 61 63 64 65 67 68 69 70 72 74 75 77 78 78 79 80 79 80 83 85 86 87 88 89 89 90 91 91 92 92 92 93 93 94
32 31 31 31 31 31 31 32 32 33 35 37 39 41 43 44 44 44 43 42 43 44 45 47 50 52 53 55 55 53 50 46 41 37 34 33 33 34 36 37 39 41 43 45 47 49 51 53 54 56 57 59 60 62 63 65 67 68 70 71 72 73 74 75 77 79 80 81 81 81 80 80 82 85 86 87 88 89 90 91 91 92 92 93 93 93 93 94
31 31 31 31 31 31 31 32 33 35 37 39 41 42 42 41 41 40 41 42 44 46 48 50 51 53 52 51 47 42 38 35 33 32 32 33 35 37 39 41 43 45 47 48 50 52 53 55 56 58 60 61 62 64 66 67 69 70 72 74 75 75 75 76 77 78 79 81 81 81 80 79 80 82 83 85 87 88 89 90 90 91 91 92 92 93 93 94
30 30 30 30 30 31 32 33 35 37 38 39 39 39 38 38 39 40 42 44 46 48 49 50 49 47 43 38 35 32 30 30 31 33 35 37 39 41 43 45 46 48 49 51 52 54 55 57 58 60 61 63 64 66 67 68 69 71 72 73 74 75 75 76 76 76 77 78 80 81 81 80 80 82 83 84 85 86 88 89 90 90 91 92 93 93 94 94
29 29 29 29 30 31 33 34 35 36 36 36 36 36 37 38 40 42 44 45 47 47 46 43 38 34 30 29 28 29 30 32 34 36 38 40 42 43 45 46 48 49 51 52 54 56 57 59 60 61 63 64 65 66 67 67 68 69 70 70 72 72 73 73 74 75 75 76 77 79 80 81 81 82 83 84 85 86 86 88 89 90 91 92 93 93 94 95
27 28 28 29 30 31 32 32 32 32 33 33 34 36 38 40 41 43 44 44 42 38 34 30 28 26 26 27 29 31 33 35 37 39 41 42 44 45 46 48 50 51 53 55 56 58 59 60 61 62 62 63 63 64 65 65 66 67 67 68 69 70 71 71 72 74 75 76 77 78 80 82 83 84 85 86 86 87 88 88 89 90 91 92 93 94 95 96
26 26 27 27 28 29 29 29 30 31 32 34 36 37 39 40 41 39 37 34 30 27 25 24 24 26 28 30 32 35 36 38 40 42 43 44 46 47 48 50 51 53 54 56 57 58 58 58 59 59 59 59 59 60 61 62 63 64 65 66 68 70 72 72 73 74 75 77 78 79 80 82 83 86 87 88 88 89 90 90 91 92 92 93 94 95 96 97
24 24 25 25 26 27 27 29 30 32 33 35 36 37 36 34 31 28 25 23 22 22 23 24 27 29 31 33 35 37 39 41 42 43 45 46 47 49 50 51 52 53 54 54 55 55 55 55 55 55 55 56 57 58 59 61 62 63 65 66 67 69 72 73 73 74 73 74 76 77 78 80 81 83 85 86 88 89 89 89 90 91 92 93 94 96 97 98
22 23 23 24 25 26 28 29 31 32 33 32 30 28 25 22 20 19 19 20 21 23 25 27 30 32 34 36 37 39 40 42 43 45 46 47 48 49 50 50 50 50 50 50 51 51 51 52 52 53 54 56 57 58 59 61 62 62 63 64 65 65 67 70 71 71 71 71 73 74 76 79 80 83 85 86 88 89 89 90 91 91 92 93 95 96 97 98
21 22 23 24 26 27 28 28 28 27 24 21 19 16 16 16 16 17 19 21 23 25 28 30 32 34 35 37 38 40 41 43 44 46 46 47 47 47 46 46 46 46 47 47 48 49 50 51 52 54 55 56 57 58 59 60 60 61 61 62 63 63 64 67 68 70 71 71 72 73 74 77 80 83 86 87 90 90 91 92 93 94 95 96 97 97 98 99
21 22 23 24 24 24 22 21 18 15 13 12 12 12 14 15 17 19 21 24 26 28 29 31 33 34 36 37 39 40 42 43 44 44 43 43 43 42 43 43 43 45 46 47 48 49 50 51 52 53 54 56 57 58 58 59 60 61 61 62 63 65 65 66 67 70 71 72 72 73 73 76 78 81 85 88 90 91 92 93 94 96 98 99 99 100 101 102
20 20 20 19 17 15 12 10 9 8 8 10 12 13 15 17 19 22 24 25 27 29 30 31 33 34 36 37 39 40 40 40 40 39 39 39 40 40 41 43 44 45 46 48 49 49 50 51 52 53 54 55 56 58 59 59 60 61 62 62 63 65 66 66 66 68 71 72 73 74 73 75 78 80 83 87 89 91 93 94 95 96 98 100 101 102 103 105
16 14 13 11 9 8 7 6 6 7 9 11 13 15 17 19 21 23 25 26 28 29 30 31 33 35 36 37 37 37 37 36 36 36 37 38 40 41 42 43 44 45 46 47 48 49 50 50 51 52 52 54 55 56 57 58 59 59 60 62 62 63 66 67 67 67 69 72 74 75 73 73 76 79 81 84 87 89 91 93 94 95 97 99 100 102 104 105
11 10 9 8 7 5 4 5 6 8 11 13 15 17 19 21 22 23 25 26 27 28 30 32 34 34 34 34 34 33 33 34 34 35 37 38 40 41 42 43 44 45 46 47 48 49 49 50 50 51 51 52 53 54 54 55 56 57 58 60 62 63 64 67 68 68 69 72 75 77 76 73 74 79 81 83 86 88 89 90 91 93 94 96 98 99 101 103
11 9 8 5 3 2 3 6 8 11 13 15 17 18 20 21 22 23 24 26 27 29 30 31 31 31 31 31 30 31 31 33 34 35 36 37 39 41 42 44 44 45 46 47 47 48 49 50 51 51 51 51 52 52 53 54 55 57 58 60 62 64 65 67 68 69 70 74 77 79 80 76 73 80 84 84 88 90 89 90 90 90 92 94 95 97 99 100
8 6 3 1 1 4 6 8 10 12 13 15 17 18 19 21 22 24 25 26 27 28 28 28 28 28 28 29 29 30 31 32 34 35 36 37 39 41 43 44 45 46 46 47 48 49 50 51 52 53 53 52 52 53 54 55 56 58 60 61 63 65 67 68 70 72 73 76 81 84 86 80 74 80 87 87 89 91 89 90 89 90 91 93 94 95 96 97
5 3 1 1 3 5 7 9 10 12 13 15 17 18 20 22 24 24 24 24 24 24 25 25 26 27 27 29 29 30 30 31 33 36 38 39 40 41 42 43 46 48 49 49 50 52 53 54 55 56 56 56 56 56 57 58 59 60 62 65 67 68 70 72 73 75 76 78 82 86 89 86 78 81 89 90 90 90 89 89 89 89 90 90 91 91 92 94
3 1 1 3 5 6 8 9 11 12 14 16 18 20 21 22 21 21 20 21 21 22 22 23 25 25 26 27 27 28 30 33 35 37 39 41 42 43 45 46 48 51 53 54 55 55 56 57 58 58 59 59 59 60 62 63 64 65 66 68 70 71 72 74 74 75 76 77 81 84 87 87 83 82 90 93 91 89 88 88 88 88 89 89 89 90 91 91
1 1 3 5 6 7 9 10 12 14 16 18 19 19 18 18 17 18 19 19 19 20 22 23 23 24 24 26 28 31 34 36 38 40 42 45 47 49 50 52 54 55 57 58 59 60 60 61 61 62 63 63 64 66 67 68 69 70 70 70 71 73 74 75 76 75 75 75 79 84 84 86 86 86 88 90 89 88 88 88 88 88 88 88 88 89 89 88
3 4 5 6 8 9 11 13 15 16 17 17 16 15 15 15 16 17 17 18 19 21 22 23 24 26 27 30 33 35 38 41 44 46 48 50 52 54 56 58 60 61 62 63 64 65 65 65 66 66 67 68 69 69 70 71 72 73 73 73 72 73 74 76 77 76 76 76 79 82 81 82 87 89 89 87 86 87 88 88 88 87 85 85 86 88 87 85
5 6 7 9 11 12 13 14 15 15 14 13 13 13 14 16 16 16 18 19 21 22 24 25 27 29 31 34 36 39 42 44 47 49 51 52 54 55 57 59 60 62 64 65 66 67 68 68 69 69 70 71 71 72 73 73 74 75 76 76 76 74 73 75 76 76 74 75 80 84 83 82 85 88 88 85 83 83 83 85 86 85 83 83 85 85 83 82
8 9 11 12 13 13 14 14 13 12 12 12 13 14 15 16 16 17 20 21 22 24 26 28 30 32 35 37 39 42 44 46 48 50 52 53 54 56 58 59 61 62 64 65 67 69 69 69 70 71 71 72 73 74 75 76 78 79 80 80 81 80 77 76 77 76 73 73 78 83 85 86 88 88 85 83 82 81 80 83 83 80 80 82 82 82 82 82
11 12 13 13 13 13 14 13 11 11 13 14 14 15 16 16 18 20 22 23 25 26 28 30 33 35 38 40 42 44 46 48 50 52 54 56 57 59 61 62 64 64 65 66 68 70 71 71 71 72 73 74 76 77 79 80 81 81 83 84 85 86 84 83 83 83 79 77 77 80 83 89 94 92 87 84 82 80 80 81 80 77 78 80 80 80 82 82
13 13 13 14 14 14 13 10 10 14 15 14 15 17 17 19 21 23 25 26 28 29 31 33 35 38 40 42 45 46 49 51 54 56 59 60 62 63 64 65 66 66 67 68 69 71 73 74 74 75 76 78 79 80 82 83 84 84 85 87 87 88 88 87 88 89 87 82 79 80 81 88 97 95 89 85 82 81 82 82 80 78 79 79 77 77 79 80
14 14 14 14 14 14 12 11 14 16 14 15 18 19 19 22 25 26 27 29 31 33 35 37 39 40 43 45 48 50 53 55 58 59 61 63 64 65 65 66 67 68 69 70 71 72 74 77 79 79 79 80 81 82 83 85 86 86 86 88 89 89 90 90 88 87 87 83 81 82 82 88 98 95 89 86 85 86 87 85 82 80 78 77 75 75 77 76
15 14 15 15 14 13 13 14 16 16 16 19 20 20 23 26 27 28 30 32 34 36 38 40 42 44 47 49 51 54 56 58 60 61 62 63 64 65 66 67 68 69 70 71 72 73 74 76 79 80 80 81 81 82 83 85 85 85 86 88 89 90 90 93 93 89 86 82 80 81 83 91 100 95 88 89 90 91 89 86 83 78 75 74 73 74 74 72
15 15 15 15 14 15 16 16 17 18 20 21 20 23 27 29 30 31 32 34 37 39 40 43 45 47 50 52 54 56 57 58 59 60 61 62 64 65 66 67 68 69 71 72 73 74 75 75 78 80 81 81 82 82 83 84 85 85 87 88 90 91 91 93 97 96 93 87 81 77 81 94 101 94 90 93 93 93 89 83 79 75 72 74 72 70 69 67
15 16 16 16 16 17 16 17 20 22 21 21 23 27 30 30 32 33 34 37 39 41 44 46 48 49 51 53 54 56 56 57 59 60 61 63 64 66 67 68 69 70 71 72 73 75 76 77 78 81 82 83 83 83 84 86 86 86 88 90 90 92 93 94 97 98 98 94 87 76 77 93 103 95 91 94 93 92 87 79 76 73 71 73 72 68 65 63
17 16 17 18 18 17 17 21 23 21 20 24 28 30 31 32 33 35 37 40 42 45 47 48 49 50 52 53 54 55 56 57 59 61 63 65 66 68 69 70 71 72 73 74 75 77 78 78 79 80 82 84 85 85 85 87 88 87 88 91 91 92 93 93 95 97 99 99 94 84 80 93 105 99 93 94 93 91 86 78 74 73 71 71 71 68 64 60
17 17 18 19 18 18 21 22 21 20 24 28 30 31 32 33 35 38 41 43 45 47 47 48 49 50 51 53 54 55 57 59 61 64 66 68 70 71 72 73 74 75 76 77 78 79 80 81 82 82 83 83 84 85 85 86 86 86 87 89 92 93 94 95 95 94 97 99 97 90 87 95 106 105 99 98 96 91 85 78 73 73 72 70 69 68 65 61
17 18 20 20 19 22 23 21 21 25 29 30 30 32 33 35 38 41 43 45 46 46 47 49 50 51 52 54 56 58 60 63 66 68 70 72 73 74 75 76 77 78 79 80 81 81 82 83 84 84 85 85 85 85 85 85 85 86 87 89 92 94 96 98 99 97 97 99 98 90 84 91 103 105 101 97 94 89 83 79 76 74 73 70 68 67 65 61
18 18 20 20 22 24 23 22 25 29 30 30 32 34 36 38 40 42 44 45 45 46 48 50 51 53 54 56 59 61 64 66 69 71 73 75 76 77 78 79 80 81 82 83 83 84 85 86 86 86 85 86 86 85 84 83 85 88 90 91 93 95 96 97 100 99 98 101 103 94 84 88 97 99 95 93 90 85 81 78 76 74 72 69 67 65 62 59
18 19 21 22 24 24 23 25 29 30 30 32 33 35 38 41 42 43 44 45 46 47 49 52 53 54 56 59 62 64 66 69 71 74 76 77 79 80 81 82 83 84 85 85 86 87 88 90 91 91 89 88 88 88 87 86 86 90 93 94 94 95 95 96 97 97 95 98 104 102 90 87 92 94 93 91 88 84 79 75 73 72 69 66 64 62 60 57
19 21 22 23 23 23 25 28 30 30 31 33 34 37 39 41 42 43 44 46 47 49 51 54 55 56 58 61 64 67 69 72 74 76 78 79 81 82 82 83 84 85 87 87 88 89 90 92 94 96 97 97 97 97 96 94 93 93 94 95 95 95 95 97 97 95 93 93 99 104 97 88 88 90 90 90 87 81 76 71 69 69 67 64 61 58 56 54
21 22 23 22 22 24 27 29 29 30 32 34 36 39 40 41 43 44 46 47 49 51 54 55 56 57 60 63 65 68 71 74 76 78 79 80 81 82 83 84 85 86 88 89 90 90 91 92 95 98 100 100 101 101 100 98 95 94 94 94 95 96 96 97 97 95 94 91 90 96 100 94 90 89 89 90 86 78 71 67 66 65 64 62 60 57 54 52
22 22 21 21 23 26 28 28 29 30 33 35 38 39 40 41 44 46 47 49 51 53 56 56 57 59 61 64 67 70 73 76 78 79 80 81 82 83 84 85 86 87 88 90 90 91 92 93 94 96 99 99 100 101 99 97 95 95 95 95 96 97 96 97 98 97 96 93 87 87 92 94 91 89 90 90 85 75 68 65 64 63 62 60 59 57 54 52
22 21 20 22 24 26 27 27 29 32 34 37 38 39 40 43 45 46 48 50 52 55 55 56 57 60 63 65 68 72 75 77 79 80 81 82 83 84 85 86 87 88 89 90 91 92 93 93 94 95 97 98 99 100 98 96 96 96 96 96 96 96 95 97 100 100 99 99 94 90 90 92 91 88 87 87 84 74 67 64 64 64 64 62 59 57 55 52
21 21 21 23 24 25 26 28 31 34 36 38 38 40 42 44 45 47 49 51 53 55 55 56 59 61 64 67 70 73 75 77 80 81 82 83 84 85 86 87 88 89 90 91 93 94 94 95 95 96 96 97 98 99 98 96 95 96 96 95 95 95 97 98 100 99 98 99 100 98 95 94 93 89 86 86 84 76 70 66 64 64 63 61 59 56 53 50
22 21 22 23 23 25 27 29 32 35 37 38 39 41 43 45 46 49 51 53 54 55 56 58 60 62 65 68 71 74 76 78 80 81 83 84 86 87 88 89 90 91 92 93 94 96 96 96 97 96 96 96 97 99 99 97 96 96 95 94 95 96 97 99 100 98 95 94 96 98 96 93 90 87 85 86 84 77 71 67 63 60 59 58 55 54 51 48
21 21 22 23 23 26 28 31 34 36 38 39 40 42 44 46 48 51 52 54 55 55 57 59 61 64 67 70 72 75 78 81 82 83 85 86 88 89 91 92 93 93 95 96 97 97 98 98 98 98 97 98 99 99 99 97 96 96 95 95 97 97 96 99 102 102 99 96 94 93 91 88 85 82 80 82 83 77 70 66 62 57 57 56 54 54 53 49
20 21 22 23 24 27 30 33 36 37 38 39 40 42 44 47 50 52 53 54 55 56 57 59 62 66 69 71 74 78 81 83 84 85 87 89 90 92 93 94 95 96 97 98 98 99 100 100 100 101 100 100 101 102 101 99 98 98 98 98 98 98 98 100 102 103 102 101 97 93 90 86 83 80 77 78 81 79 71 66 61 56 55 56 55 54 53 52
Wind_Direction
204 206 210 213 216 218 220 222 226 230 234 237 241 244 245 248 250 252 254 256 259 263 267 271 275 279 284 288 291 294 295 296 297 297 298 298 298 297 296 295 295 294 293 292 291 290 289 288 288 287 287 286 286 285 284 284 283 282 281 280 279 278 277 276 275 275 274 274 274 274 273 273 273 272 271 271 271 270 269 269 268 267 266 266 266 265 265 265
204 207 210 214 217 220 222 225 229 233 237 240 243 245 246 249 251 253 256 259 262 266 271 275 279 284 288 291 294 295 296 296 297 297 297 296 296 295 294 294 293 292 291 290 290 289 289 288 287 287 287 287 286 286 285 284 283 282 281 279 278 277 276 275 274 273 273 274 273 273 272 272 273 272 272 272 271 271 271 270 268 268 267 266 266 266 266 266
204 207 211 214 217 220 223 227 231 236 240 243 245 247 248 250 252 255 259 263 267 271 275 279 283 288 291 293 294 295 295 296 296 295 295 295 294 294 293 292 291 290 290 290 289 289 289 289 288 288 287 287 286 286 285 284 283 281 280 279 277 276 274 273 273 273 273 274 273 273 273 273 274 274 275 275 274 273 273 272 270 269 268 267 267 267 267 266
205 208 211 214 217 220 224 228 232 237 243 245 246 248 249 251 253 258 264 269 273 276 281 284 287 290 292 293 294 294 295 294 294 293 293 293 292 291 291 290 290 290 290 290 290 290 289 289 289 288 288 287 286 285 284 283 281 280 279 278 276 276 275 275 275 275 276 276 277 277 277 277 277 278 279 279 279 278 277 276 276 274 272 271 269 269 268 267
205 208 211 213 216 220 224 228 233 239 243 245 246 247 249 251 256 263 269 275 278 281 285 288 290 291 292 293 293 293 293 293 292 292 292 291 290 290 290 290 290 290 290 290 290 290 289 289 289 288 287 286 285 284 282 281 280 279 278 278 277 277 277 278 278 279 280 280 281 281 281 281 281 282 282 282 281 281 280 280 280 279 278 276 274 272 271 270
206 209 212 215 218 222 226 230 235 240 243 244 246 248 251 255 261 267 273 277 281 284 286 288 289 290 291 292 292 292 292 291 291 290 289 289 289 289 290 290 290 290 290 290 290 290 289 288 288 287 285 285 284 283 282 281 280 280 280 281 281 281 281 282 282 283 283 283 283 284 283 283 282 282 282 282 282 282 282 281 281 280 279 278 277 276 275 274
207 210 213 216 220 224 228 233 237 241 245 247 250 253 256 261 266 271 276 279 282 285 287 288 288 289 290 291 291 290 290 289 289 289 288 289 289 290 290 290 290 290 290 290 289 289 288 287 286 286 285 284 284 284 283 284 284 284 284 285 285 285 285 285 285 285 285 285 284 284 284 284 283 282 281 281 281 280 280 280 279 278 278 277 277 277 276 276
208 211 215 218 222 226 231 235 240 245 248 252 256 259 263 267 271 275 278 281 284 286 286 287 288 289 290 289 289 288 288 288 287 288 288 289 290 290 290 290 290 290 290 289 288 288 287 287 287 287 286 286 286 287 287 287 287 287 287 288 287 288 287 287 287 286 286 285 285 285 284 284 284 283 282 281 280 279 279 278 277 276 276 276 276 275 275 275
209 213 217 221 226 230 234 238 243 248 253 257 261 265 269 272 275 278 281 283 285 285 286 287 288 288 288 287 287 287 287 287 288 288 289 290 290 291 290 290 290 290 289 289 289 289 289 289 289 289 289 289 289 289 289 289 289 289 289 289 289 289 289 289 288 288 287 287 286 285 285 284 283 283 283 282 281 280 279 278 278 277 276 276 275 275 274 273
212 216 220 224 229 233 237 242 247 252 257 261 265 269 272 275 278 281 283 284 284 285 286 286 286 285 285 285 286 286 287 288 288 289 290 290 290 290 290 290 291 291 291 291 291 291 291 292 292 292 292 292 292 292 292 291 291 291 291 291 291 291 290 290 290 289 288 288 287 286 286 284 283 283 282 282 281 280 280 279 278 277 277 276 275 275 274 274
214 218 223 227 232 237 242 247 252 256 261 265 268 272 275 278 280 281 282 283 284 284 284 284 283 283 284 285 285 286 287 288 289 290 290 290 290 290 291 292 293 293 293 293 293 293 293 293 293 294 294 294 294 294 294 293 293 293 292 292 291 291 290 289 289 288 287 286 286 285 285 284 282 282 281 280 280 279 279 278 277 277 276 275 275 274 274 273
217 221 226 231 236 241 246 251 256 260 264 269 272 275 277 278 279 280 281 282 282 281 281 281 282 283 284 285 286 287 288 289 289 289 289 290 290 292 293 293 294 294 294 294 294 295 295 296 296 296 295 295 295 294 294 294 293 292 291 290 289 288 287 287 286 286 285 285 284 284 283 283 283 282 282 281 280 279 279 278 277 277 276 275 275 274 273 273
220 225 230 235 241 246 251 256 260 265 268 271 273 274 276 277 278 279 279 278 278 279 279 281 282 284 285 286 287 288 289 289 289 289 290 291 292 293 294 294 295 295 296 297 297 297 298 297 296 296 295 294 294 293 292 292 291 291 289 289 288 287 287 286 286 286 286 286 285 285 284 284 283 283 283 282 282 281 280 280 279 278 278 277 276 275 274 273
224 229 234 239 245 250 256 260 264 266 269 271 272 274 275 275 275 275 276 276 277 279 281 282 284 285 287 288 288 288 288 288 289 290 291 293 293 295 296 296 298 298 299 299 298 297 296 295 294 293 293 293 292 292 292 291 291 291 290 290 290 290 290 289 289 289 289 289 289 288 287 286 285 284 284 283 283 282 282 282 281 281 280 279 278 277 276 275
228 233 238 244 249 254 258 261 264 266 268 269 270 271 272 272 273 274 275 277 279 281 283 285 286 287 287 287 288 288 288 289 291 292 294 296 297 298 299 300 300 299 298 296 295 294 293 293 293 292 293 293 293 293 293 293 293 293 293 294 294 294 293 293 293 292 292 292 292 292 291 290 288 287 286 286 285 285 284 284 283 283 282 281 280 279 278 277
231 236 241 246 250 254 258 260 262 264 265 266 267 268 270 271 273 275 278 280 282 284 285 285 286 286 286 287 287 288 289 291 293 295 297 299 300 300 299 298 296 295 294 293 293 293 293 294 294 294 295 296 296 296 296 296 296 296 295 295 295 295 296 296 296 296 296 295 295 295 294 294 292 291 290 289 288 287 287 286 285 285 284 283 282 281 280 279
231 236 241 246 249 252 255 257 259 260 262 264 266 268 270 273 276 278 281 282 283 284 284 284 284 285 286 287 289 292 294 296 297 298 299 299 298 296 295 294 294 294 294 295 296 297 297 298 299 299 299 300 300 299 299 298 298 298 299 299 300 300 300 300 300 299 299 299 298 297 297 296 295 294 293 292 291 290 289 288 287 286 286 285 284 284 282 281
230 235 239 243 246 248 251 254 256 259 262 264 267 270 273 276 279 281 282 282 282 281 282 283 284 287 289 292 295 298 299 299 299 298 297 295 294 294 294 295 296 297 299 300 301 301 302 302 302 302 302 301 301 301 301 301 302 303 304 304 304 304 303 302 301 300 300 299 298 297 296 295 295 294 293 293 292 291 290 290 289 288 288 287 286 285 284 283
228 232 235 239 243 247 250 254 257 261 264 268 271 274 277 279 280 280 279 278 278 281 284 287 290 294 297 299 300 299 298 297 296 295 295 295 296 297 298 300 301 303 304 304 304 304 304 304 304 304 304 305 305 306 306 306 307 307 307 306 305 304 302 302 301 301 301 299 298 297 296 296 295 294 293 292 292 291 291 290 290 289 289 288 287 286 285 284
227 231 236 240 245 249 253 257 262 266 269 272 274 275 276 276 275 274 275 277 281 287 292 296 298 300 300 299 297 296 295 296 296 298 299 300 302 303 304 305 306 306 306 306 307 307 308 309 310 311 311 312 311 311 310 310 309 309 307 306 305 304 302 302 302 302 301 300 299 299 298 297 297 296 295 294 293 293 293 292 292 291 290 289 288 287 286 286
230 235 241 245 250 255 259 263 266 268 268 269 270 269 269 269 270 275 281 287 292 296 299 300 299 298 296 295 295 296 297 299 301 302 304 305 307 307 308 308 308 308 310 311 313 315 316 316 317 317 316 315 314 313 313 312 311 310 309 309 308 307 306 306 305 305 304 303 302 302 301 299 298 296 295 294 293 293 293 292 292 291 290 289 288 288 287 287
237 243 247 252 256 258 259 260 260 260 261 262 262 264 268 274 280 288 295 298 300 300 298 296 295 294 295 296 298 299 301 304 306 307 308 308 308 308 309 310 313 316 318 320 321 321 321 320 320 320 319 318 317 317 316 315 314 314 313 313 312 311 310 309 308 307 306 305 303 302 301 299 297 295 293 292 292 292 291 291 291 290 289 289 289 289 288 287
242 245 247 247 246 244 242 241 242 246 254 260 267 274 282 290 296 300 301 299 297 295 294 294 295 298 300 302 303 305 307 308 309 309 308 309 310 313 317 320 323 324 325 325 325 324 324 324 324 324 323 322 321 320 320 319 318 317 316 316 314 313 312 311 309 308 307 306 303 302 301 299 297 295 292 291 291 291 290 290 289 288 288 288 288 288 288 287
231 228 223 218 212 209 212 220 236 251 265 276 286 294 299 301 301 300 296 293 293 294 297 300 302 304 305 306 308 310 311 311 311 313 315 319 322 325 327 328 329 329 328 328 328 328 328 328 328 327 326 325 324 323 322 321 320 319 317 316 315 314 313 313 312 310 309 307 304 302 301 299 297 295 292 291 290 289 289 288 288 287 287 287 287 287 286 285
191 185 179 175 178 188 212 246 269 283 291 297 301 302 301 299 296 294 293 295 299 302 304 306 307 309 310 312 314 315 317 318 321 324 328 331 331 331 331 331 332 332 331 331 331 331 330 330 329 328 327 327 327 326 324 322 321 320 318 317 317 316 315 314 314 312 310 308 305 303 301 300 299 297 295 294 292 291 290 289 289 289 288 287 287 286 285 285
159 157 156 160 175 232 282 292 298 301 301 300 299 296 294 293 294 297 302 306 308 308 308 310 312 315 317 319 322 324 327 330 332 333 334 335 334 334 335 335 335 334 333 334 333 332 332 332 331 329 329 330 329 328 326 324 323 322 321 320 319 318 317 316 315 314 312 310 307 305 303 303 304 302 300 298 296 294 294 293 293 292 291 290 289 288 287 287
141 138 131 105 330 311 301 299 301 300 298 296 294 293 295 299 305 310 312 311 310 311 313 315 318 322 325 329 332 335 337 336 336 337 337 337 338 338 338 338 337 336 336 336 335 335 335 334 333 332 333 333 332 331 329 328 326 325 324 322 321 320 319 318 317 316 315 313 310 308 307 307 309 306 302 300 298 297 298 297 296 295 294 293 291 290 289 288
114 100 71 341 310 304 301 300 299 298 297 298 299 304 311 315 316 314 313 313 315 319 322 326 330 335 338 341 342 341 339 339 340 340 340 340 340 340 340 340 339 338 338 338 338 339 339 338 337 336 336 336 336 334 332 330 329 327 326 325 324 323 322 321 320 318 317 315 311 309 309 311 313 309 304 302 301 300 300 299 298 296 295 294 293 291 290 288
101 80 332 311 310 309 305 303 304 306 309 312 317 321 322 319 315 315 319 323 327 331 335 341 345 347 347 345 344 342 342 343 343 342 342 342 342 342 342 342 342 342 342 341 342 342 343 342 340 339 339 338 337 336 334 332 331 330 328 327 326 325 323 321 320 319 318 316 312 310 312 314 314 310 306 305 304 303 302 300 299 298 298 297 295 293 291 290
73 357 332 325 321 317 318 321 322 322 324 326 326 324 320 320 323 329 334 336 339 344 349 352 352 350 347 346 346 346 346 346 345 344 345 345 346 346 346 346 346 346 345 345 345 345 345 344 342 340 340 339 338 337 335 333 331 330 329 328 327 326 325 323 321 321 320 319 314 312 315 315 313 310 307 305 305 305 304 303 302 301 300 299 297 295 293 292
18 356 344 337 334 337 337 335 333 333 333 330 326 324 329 337 344 346 347 351 354 357 357 355 353 352 351 352 352 351 351 350 350 349 349 350 350 351 350 349 349 348 347 346 346 345 345 344 342 341 340 339 338 336 334 332 330 329 328 328 328 327 326 324 323 323 323 321 316 314 317 317 313 310 308 308 308 308 307 306 304 303 302 301 299 297 296 296
13 0 356 353 351 349 342 339 340 338 335 332 333 343 354 358 0 1 3 5 4 2 360 357 357 357 356 356 356 355 355 354 354 353 353 353 353 352 352 351 349 348 347 346 345 345 344 343 342 340 339 338 337 335 333 332 331 330 329 329 329 329 328 326 325 324 324 323 320 318 319 317 312 309 308 309 309 308 308 307 305 305 305 303 301 300 299 298
14 11 6 0 354 347 344 347 347 343 345 351 358 8 12 12 12 13 12 12 8 5 4 2 1 0 360 360 359 359 358 357 356 355 355 354 353 352 352 351 349 348 347 345 345 344 343 342 341 340 339 337 336 335 334 334 334 332 330 330 330 331 331 330 328 327 327 328 325 322 321 319 313 310 310 312 312 311 310 307 306 307 307 305 305 305 304 302
19 13 4 356 352 352 358 358 355 3 11 12 17 24 25 21 19 17 15 13 10 9 8 6 5 4 3 2 1 0 359 358 358 356 355 354 353 353 352 351 350 348 347 346 345 344 343 342 341 339 339 338 337 337 336 335 335 333 332 332 332 332 332 333 332 329 330 331 329 327 325 321 316 314 317 318 316 314 312 309 309 311 311 310 310 309 305 301
17 7 359 358 2 9 13 10 16 29 27 23 31 35 29 25 22 20 18 15 13 11 10 9 8 7 5 4 3 2 0 359 358 357 355 354 353 353 352 351 349 348 347 346 346 345 343 341 341 341 340 339 338 337 336 335 335 335 333 332 333 332 333 334 332 329 329 332 333 332 329 323 318 318 320 320 318 317 315 314 316 317 316 314 311 306 301 298
11 4 3 11 20 26 27 28 38 41 36 35 40 36 30 27 25 22 19 17 15 13 12 10 9 8 7 5 4 2 1 360 358 357 355 353 353 352 351 350 350 348 348 347 346 346 344 342 342 342 340 339 339 337 336 334 334 335 333 332 333 334 333 332 331 330 330 333 336 334 331 324 319 321 323 322 321 321 319 319 321 320 317 314 309 304 300 299
10 11 18 29 37 40 41 44 50 50 44 43 41 34 31 30 26 23 21 18 16 14 13 11 9 8 7 6 4 3 1 359 357 356 354 353 353 353 352 351 350 349 348 347 346 346 345 343 341 341 340 339 339 338 336 335 334 333 333 333 334 334 333 332 331 332 333 336 338 337 333 327 323 325 327 326 325 323 321 323 323 321 318 313 308 304 302 303
17 24 35 44 48 50 52 56 57 53 48 44 38 34 33 30 26 24 21 19 17 14 13 11 10 9 8 6 4 2 0 359 357 356 355 355 354 354 353 352 351 350 349 347 347 346 345 344 342 341 341 340 339 338 337 336 335 335 335 335 334 333 334 333 331 333 335 337 339 339 336 330 326 328 329 327 326 323 322 325 324 323 320 313 309 307 307 307
31 39 48 52 55 58 59 58 55 52 47 41 37 35 33 30 27 24 21 19 17 15 14 12 10 9 7 6 4 3 1 360 359 358 357 357 356 355 354 353 351 350 349 348 347 346 346 345 344 343 341 340 340 339 338 338 337 337 335 335 335 334 335 334 332 333 334 336 339 339 340 334 328 329 330 327 325 323 324 328 327 325 321 314 312 312 311 310
44 50 56 58 61 62 59 56 55 51 44 39 38 36 33 30 27 23 21 19 17 16 15 13 10 9 8 7 7 5 4 2 1 360 358 357 356 355 354 353 352 351 350 349 348 347 347 347 346 345 343 342 341 340 340 339 338 337 335 334 335 334 335 335 334 334 334 337 339 340 342 338 329 329 330 328 326 326 328 330 329 326 322 317 316 316 315 314
54 57 62 64 65 63 60 60 57 49 43 41 39 36 33 30 26 23 22 20 18 17 15 14 13 12 11 10 9 7 5 3 1 360 359 358 357 356 355 354 352 351 350 350 349 348 348 348 347 346 345 343 343 342 341 339 338 337 335 334 335 336 337 337 337 337 337 337 339 340 342 339 331 329 332 330 329 329 330 332 331 327 323 321 321 319 318 318
61 63 68 70 69 65 64 62 54 48 45 42 39 36 33 30 26 24 23 21 20 19 18 17 16 15 13 11 9 7 5 4 2 1 1 360 358 357 356 354 353 352 351 350 350 349 348 348 348 348 346 345 345 343 342 340 339 338 337 337 338 338 338 338 337 340 340 338 338 340 342 340 332 330 331 330 329 330 332 335 333 328 324 324 323 321 320 320
67 69 72 73 70 67 64 58 52 49 45 41 39 36 32 30 28 26 24 23 22 22 21 19 16 14 12 10 8 6 5 5 4 3 2 0 358 357 356 355 353 352 352 351 350 349 349 348 348 348 348 346 346 345 344 342 340 340 340 341 341 340 340 339 338 340 342 339 337 339 343 341 334 330 330 330 330 332 335 337 333 327 326 326 324 321 321 319
72 74 75 74 72 68 61 55 52 47 43 40 38 35 33 31 29 27 25 24 24 23 21 17 15 13 11 9 7 6 6 5 4 2 1 359 358 357 355 355 353 352 352 351 351 350 350 349 348 348 348 347 347 347 346 345 343 342 342 342 343 341 341 340 339 341 343 341 337 337 341 340 335 332 331 331 332 334 337 337 332 327 326 325 323 321 321 319
75 77 77 76 72 66 57 53 49 45 42 41 38 36 33 31 28 27 26 26 24 22 18 15 14 12 10 9 7 6 5 4 2 1 359 358 357 356 355 354 353 352 352 351 352 351 351 350 349 348 349 349 349 349 349 348 346 345 343 342 343 343 343 341 340 342 344 344 339 336 337 340 337 334 333 332 332 335 337 337 331 327 326 325 323 323 322 320
78 80 80 75 68 60 54 50 47 44 43 40 38 36 33 30 29 27 26 25 23 19 17 14 13 11 9 8 7 5 4 2 1 360 359 358 357 356 355 354 353 353 352 352 353 352 352 351 350 349 349 350 349 350 350 349 347 345 344 343 342 344 344 341 339 342 344 344 342 338 337 340 340 337 335 332 332 335 338 336 330 328 327 326 326 326 324 323
81 82 80 72 62 55 51 48 46 45 43 41 38 35 32 30 29 27 25 23 20 17 15 13 12 11 9 8 6 4 2 1 360 359 359 358 357 356 356 355 355 354 354 354 353 353 353 353 352 351 350 350 349 350 350 348 346 345 344 344 344 344 345 342 340 343 345 343 343 342 340 340 341 339 336 332 331 336 340 337 332 331 331 329 329 329 328 327
85 84 76 65 58 53 50 49 47 45 43 41 38 35 32 30 28 26 23 20 18 15 14 13 12 10 9 7 5 3 1 0 360 360 360 359 359 358 358 357 356 356 355 355 354 354 354 354 354 353 351 351 350 349 350 348 347 346 346 346 344 343 344 343 342 344 345 342 342 344 344 343 342 340 337 332 331 336 341 339 336 336 334 333 333 331 330 329
86 81 70 61 55 52 51 50 49 46 43 41 37 35 32 30 27 24 21 18 17 15 15 14 11 9 8 6 4 2 2 1 2 2 2 1 1 0 360 359 358 358 357 356 356 356 356 355 355 354 352 351 350 349 350 349 348 347 347 346 344 344 345 345 344 345 345 343 343 345 346 345 342 341 339 334 333 338 343 342 341 340 337 335 334 331 330 330
83 75 65 57 54 54 54 52 49 46 43 41 37 34 32 29 26 23 21 19 18 17 15 13 11 9 7 5 4 4 4 4 5 4 4 3 2 2 1 0 360 359 358 358 357 357 357 356 356 355 353 352 351 350 350 350 349 347 347 346 345 346 347 345 344 346 347 347 346 346 346 345 342 342 342 337 334 338 343 343 342 342 339 336 334 331 330 331
78 69 60 56 56 57 55 52 49 46 43 41 37 34 31 27 25 23 22 20 19 17 14 12 10 8 7 6 6 7 7 7 7 6 5 4 3 3 2 1 0 360 359 358 358 358 357 357 356 356 354 352 351 352 351 351 350 348 348 348 348 348 349 346 345 347 348 348 348 347 346 344 342 344 345 339 334 337 343 343 342 343 342 339 337 335 333 333
73 63 59 59 60 58 54 52 49 46 43 40 36 33 30 26 25 24 22 20 18 15 13 11 10 9 8 9 9 9 9 8 7 6 5 5 4 3 3 2 1 0 360 359 359 358 358 357 356 356 355 354 353 352 352 351 350 349 349 350 349 350 351 349 347 348 349 348 348 347 346 345 344 345 347 343 336 337 343 344 342 343 344 342 341 339 337 335
Height
10711 10713 10716 10718 10720 10722 10724 10726 10727 10727 10728 10729 10729 10729 10728 10727 10727 10727 10727 10727 10727 10726 10725 10723 10722 10721 10719 10717 10715 10713 10711 10709 10707 10705 10702 10700 10698 10696 10693 10691 10688 10686 10683 10679 10676 10674 10671 10668 10665 10662 10658 10655 10653 10650 10648 10645 10642 10639 10635 10633 10630 10628 10624 10621 10618 10616 10614 10613 10613 10611 10609 10606 10603 10599 10595 10596 10597 10592 10590 10590 10588 10587 10584 10581 10578 10576 10574 10572
10710 10713 10715 10718 10720 10722 10723 10724 10725 10726 10726 10727 10727 10726 10726 10725 10725 10725 10725 10725 10725 10724 10722 10721 10719 10718 10715 10713 10712 10709 10707 10705 10703 10700 10698 10696 10693 10691 10688 10686 10683 10680 10677 10674 10670 10667 10664 10661 10659 10656 10653 10649 10645 10642 10639 10636 10633 10630 10627 10624 10622 10620 10616 10613 10611 10609 10608 10606 10606 10604 10602 10600 10596 10591 10587 10590 10591 10586 10583 10582 10580 10579 10576 10574 10571 10568 10566 10564
10709 10712 10715 10717 10719 10721 10722 10723 10724 10724 10724 10724 10724 10724 10723 10723 10724 10724 10724 10723 10722 10721 10719 10717 10716 10714 10712 10710 10708 10706 10703 10701 10699 10696 10693 10691 10688 10686 10683 10681 10677 10674 10671 10667 10664 10661 10658 10655 10651 10648 10645 10642 10638 10635 10632 10628 10625 10623 10620 10618 10616 10613 10610 10607 10606 10605 10604 10602 10599 10597 10597 10595 10590 10585 10582 10583 10584 10580 10576 10574 10572 10572 10570 10568 10565 10562 10560 10557
10709 10712 10714 10716 10718 10719 10720 10721 10722 10722 10722 10722 10722 10721 10722 10722 10723 10722 10722 10721 10719 10717 10715 10714 10713 10711 10709 10706 10704 10702 10699 10696 10694 10692 10689 10686 10684 10681 10678 10675 10671 10668 10665 10662 10658 10655 10651 10648 10644 10641 10637 10634 10631 10628 10625 10622 10620 10617 10615 10613 10610 10608 10604 10602 10601 10601 10599 10597 10594 10591 10591 10590 10585 10581 10578 10576 10575 10573 10570 10566 10564 10563 10562 10561 10558 10556 10553 10551
10709 10711 10713 10715 10716 10718 10719 10719 10720 10720 10720 10720 10720 10720 10721 10721 10721 10720 10719 10718 10716 10714 10712 10710 10709 10707 10705 10703 10700 10697 10695 10692 10689 10687 10684 10681 10679 10676 10673 10669 10666 10662 10659 10656 10652 10649 10645 10641 10638 10634 10631 10628 10625 10623 10620 10618 10615 10613 10610 10608 10605 10603 10600 10598 10597 10597 10595 10592 10588 10585 10585 10583 10580 10576 10573 10569 10566 10564 10562 10559 10556 10554 10552 10551 10549 10547 10544 10542
10708 10710 10712 10713 10715 10716 10717 10717 10717 10718 10718 10718 10718 10719 10719 10719 10719 10718 10716 10715 10713 10710 10709 10707 10705 10703 10701 10699 10696 10693 10690 10687 10685 10683 10680 10677 10674 10670 10667 10664 10660 10657 10653 10650 10646 10643 10639 10635 10632 10629 10626 10624 10621 10619 10616 10613 10611 10609 10606 10603 10601 10598 10595 10594 10593 10592 10590 10587 10583 10579 10577 10576 10573 10570 10566 10562 10559 10556 10554 10551 10549 10545 10542 10539 10537 10535 10533 10531
10707 10709 10710 10712 10713 10714 10714 10715 10715 10715 10716 10717 10717 10717 10717 10717 10716 10714 10713 10711 10709 10707 10705 10704 10702 10699 10697 10694 10692 10689 10686 10683 10680 10678 10675 10672 10668 10665 10661 10658 10655 10651 10648 10644 10641 10637 10634 10631 10628 10625 10623 10620 10618 10615 10612 10610 10607 10605 10602 10599 10596 10593 10590 10588 10587 10586 10584 10581 10577 10573 10570 10567 10565 10562 10558 10555 10552 10549 10546 10543 10540 10536 10533 10530 10527 10525 10522 10521
10706 10708 10709 10710 10711 10712 10712 10713 10713 10714 10715 10715 10715 10715 10715 10714 10712 10711 10709 10708 10706 10704 10702 10700 10697 10695 10692 10690 10687 10684 10681 10679 10676 10673 10670 10666 10663 10659 10656 10652 10649 10646 10643 10639 10636 10633 10630 10627 10625 10622 10620 10617 10614 10611 10608 10606 10603 10600 10597 10594 10591 10587 10584 10582 10580 10578 10577 10574 10570 10567 10564 10560 10556 10552 10549 10546 10543 10541 10537 10534 10531 10528 10524 10521 10518 10516 10513 10510
10705 10706 10708 10708 10709 10710 10710 10711 10712 10713 10713 10714 10713 10713 10712 10710 10709 10708 10706 10705 10703 10701 10698 10696 10693 10690 10688 10685 10682 10680 10677 10674 10671 10668 10665 10661 10658 10654 10651 10648 10645 10642 10639 10636 10633 10630 10627 10624 10621 10619 10616 10613 10610 10607 10604 10601 10598 10595 10592 10589 10586 10582 10578 10575 10573 10571 10569 10566 10563 10560 10557 10553 10548 10543 10540 10537 10533 10530 10527 10524 10521 10519 10516 10512 10509 10506 10503 10500
10704 10705 10706 10707 10707 10708 10709 10710 10711 10711 10712 10711 10711 10710 10709 10707 10706 10704 10703 10701 10699 10697 10695 10692 10689 10686 10683 10681 10678 10675 10672 10669 10666 10663 10660 10657 10653 10650 10647 10644 10641 10638 10636 10633 10630 10627 10624 10621 10618 10615 10612 10609 10606 10603 10599 10597 10593 10590 10587 10583 10580 10576 10572 10568 10565 10563 10560 10557 10554 10551 10549 10545 10539 10534 10531 10526 10522 10519 10516 10513 10510 10508 10505 10503 10500 10496 10492 10489
10702 10703 10704 10705 10706 10707 10708 10709 10709 10710 10709 10709 10708 10707 10706 10704 10703 10701 10699 10698 10695 10693 10690 10688 10685 10682 10679 10677 10674 10671 10668 10665 10662 10659 10657 10653 10650 10647 10644 10641 10638 10636 10633 10629 10626 10623 10620 10617 10614 10611 10608 10604 10601 10597 10594 10591 10588 10584 10581 10577 10573 10570 10565 10561 10556 10553 10551 10548 10544 10541 10539 10535 10527 10523 10521 10516 10512 10508 10504 10501 10498 10496 10493 10491 10489 10486 10483 10479
10701 10702 10703 10704 10705 10706 10707 10707 10707 10707 10707 10706 10705 10704 10703 10701 10700 10698 10696 10694 10691 10689 10686 10683 10681 10678 10676 10673 10670 10667 10664 10662 10659 10656 10653 10650 10647 10644 10641 10638 10635 10632 10629 10626 10623 10620 10617 10613 10610 10606 10603 10599 10596 10592 10588 10584 10581 10577 10574 10570 10566 10563 10558 10553 10548 10544 10540 10537 10535 10532 10531 10527 10517 10511 10508 10503 10499 10495 10492 10489 10485 10482 10480 10478 10476 10474 10471 10468
10700 10701 10702 10703 10704 10705 10705 10705 10705 10705 10704 10704 10703 10701 10700 10698 10696 10694 10692 10690 10687 10685 10682 10680 10677 10675 10672 10669 10667 10664 10661 10658 10656 10653 10651 10648 10645 10642 10639 10635 10632 10629 10626 10623 10619 10616 10612 10608 10605 10601 10598 10594 10590 10586 10582 10578 10574 10570 10565 10561 10558 10556 10552 10547 10541 10536 10530 10526 10524 10521 10521 10519 10509 10501 10496 10490 10485 10481 10478 10474 10471 10468 10466 10463 10461 10459 10457 10454
10699 10700 10700 10701 10702 10703 10703 10703 10703 10702 10702 10701 10700 10698 10696 10695 10692 10690 10688 10686 10684 10681 10679 10677 10674 10671 10669 10666 10664 10661 10659 10656 10653 10651 10648 10645 10642 10639 10636 10632 10629 10626 10622 10619 10615 10611 10608 10604 10600 10596 10592 10589 10584 10580 10576 10572 10567 10562 10557 10552 10548 10545 10542 10537 10532 10527 10521 10515 10510 10507 10506 10506 10499 10491 10486 10480 10473 10469 10465 10461 10457 10454 10451 10448 10445 10443 10440 10438
10697 10698 10699 10700 10700 10701 10701 10701 10700 10700 10699 10698 10696 10695 10693 10691 10689 10687 10685 10683 10680 10678 10676 10673 10671 10668 10666 10664 10661 10659 10657 10654 10651 10648 10645 10642 10639 10636 10632 10629 10625 10622 10618 10614 10611 10607 10603 10599 10596 10592 10587 10584 10579 10575 10570 10565 10560 10555 10549 10544 10538 10534 10530 10526 10521 10517 10512 10506 10499 10493 10490 10488 10485 10478 10472 10467 10462 10457 10452 10448 10444 10440 10436 10432 10429 10426 10423 10420
10695 10696 10697 10698 10699 10699 10699 10698 10698 10697 10696 10694 10693 10691 10689 10688 10686 10684 10682 10680 10678 10675 10673 10671 10668 10666 10664 10662 10659 10657 10654 10651 10648 10645 10641 10639 10635 10632 10629 10625 10621 10618 10614 10610 10606 10603 10599 10595 10591 10587 10582 10578 10573 10568 10563 10558 10553 10547 10543 10537 10531 10526 10522 10517 10511 10505 10501 10496 10490 10483 10477 10472 10469 10464 10458 10453 10449 10444 10440 10435 10430 10426 10421 10417 10413 10410 10407 10403
10694 10695 10696 10696 10697 10697 10696 10696 10695 10694 10692 10691 10690 10688 10687 10685 10683 10681 10679 10677 10675 10673 10671 10669 10667 10665 10662 10660 10657 10654 10651 10648 10645 10641 10638 10635 10632 10629 10625 10621 10617 10614 10610 10606 10602 10597 10593 10589 10585 10580 10576 10571 10566 10561 10556 10551 10545 10539 10534 10530 10524 10517 10513 10509 10503 10496 10491 10486 10480 10475 10468 10461 10454 10449 10445 10439 10435 10431 10426 10422 10417 10412 10407 10403 10399 10394 10390 10386
10693 10694 10694 10694 10694 10694 10693 10692 10692 10691 10689 10688 10687 10686 10684 10683 10681 10679 10677 10675 10673 10671 10669 10667 10665 10663 10660 10657 10654 10651 10648 10644 10641 10638 10635 10632 10629 10625 10622 10618 10614 10609 10605 10601 10597 10592 10588 10584 10579 10575 10571 10566 10561 10555 10550 10544 10539 10534 10528 10523 10518 10510 10504 10500 10496 10490 10486 10479 10472 10466 10460 10453 10446 10438 10432 10427 10422 10417 10413 10408 10403 10398 10394 10389 10384 10379 10373 10369
10691 10691 10692 10692 10691 10691 10690 10690 10689 10688 10687 10686 10685 10684 10682 10680 10678 10677 10675 10674 10672 10670 10668 10666 10663 10660 10657 10654 10651 10648 10645 10641 10638 10635 10632 10628 10625 10621 10617 10613 10609 10605 10601 10596 10592 10588 10583 10579 10574 10570 10565 10560 10555 10549 10543 10538 10533 10528 10523 10517 10513 10506 10498 10492 10487 10482 10480 10474 10465 10459 10452 10444 10438 10431 10423 10417 10410 10405 10401 10397 10391 10385 10381 10375 10369 10363 10358 10353
10689 10689 10689 10689 10689 10689 10688 10688 10687 10687 10686 10684 10683 10681 10680 10679 10677 10676 10674 10672 10670 10668 10666 10663 10660 10657 10654 10651 10648 10645 10642 10639 10635 10632 10628 10624 10621 10616 10613 10609 10605 10601 10597 10592 10587 10583 10578 10573 10568 10563 10558 10553 10548 10542 10537 10531 10526 10522 10516 10511 10505 10501 10494 10486 10480 10474 10471 10467 10458 10452 10446 10436 10428 10420 10412 10406 10398 10393 10389 10383 10378 10372 10367 10361 10354 10349 10343 10338
10687 10688 10688 10688 10688 10687 10687 10687 10686 10685 10684 10682 10681 10680 10679 10678 10676 10675 10673 10671 10669 10666 10664 10661 10658 10655 10652 10649 10646 10642 10639 10636 10632 10628 10624 10621 10617 10613 10609 10605 10601 10597 10592 10588 10582 10577 10572 10567 10562 10557 10552 10546 10541 10536 10531 10525 10520 10515 10510 10504 10498 10493 10488 10479 10472 10465 10459 10456 10450 10444 10438 10428 10419 10410 10401 10394 10386 10381 10376 10369 10364 10358 10351 10345 10340 10335 10329 10322
10687 10687 10687 10687 10686 10686 10686 10685 10684 10683 10682 10681 10680 10679 10678 10677 10675 10673 10672 10669 10667 10664 10661 10658 10655 10653 10650 10647 10643 10640 10636 10632 10629 10625 10621 10617 10614 10610 10606 10602 10597 10592 10587 10582 10577 10572 10567 10562 10557 10552 10546 10540 10535 10529 10525 10519 10513 10508 10502 10497 10490 10484 10480 10473 10465 10457 10450 10445 10440 10436 10430 10421 10413 10404 10393 10383 10375 10370 10364 10357 10351 10344 10336 10331 10325 10319 10314 10307
10686 10686 10686 10685 10685 10685 10684 10684 10683 10682 10682 10681 10680 10679 10677 10676 10674 10672 10670 10667 10664 10662 10659 10656 10653 10650 10647 10644 10640 10637 10633 10630 10626 10622 10618 10614 10610 10606 10602 10597 10593 10588 10582 10577 10572 10568 10563 10558 10553 10547 10541 10535 10530 10524 10518 10513 10506 10500 10493 10489 10483 10475 10469 10465 10459 10451 10442 10434 10427 10424 10421 10413 10403 10396 10385 10373 10365 10359 10351 10344 10339 10332 10324 10317 10311 10304 10298 10292
10684 10684 10684 10684 10684 10684 10684 10683 10683 10682 10681 10680 10679 10677 10676 10674 10672 10670 10668 10665 10662 10659 10656 10653 10650 10647 10644 10641 10638 10634 10631 10627 10623 10619 10614 10610 10605 10602 10597 10593 10589 10584 10579 10574 10569 10564 10558 10554 10549 10544 10538 10531 10526 10519 10513 10507 10500 10495 10487 10481 10476 10469 10460 10453 10449 10444 10434 10425 10416 10409 10409 10406 10396 10385 10377 10367 10356 10348 10340 10334 10328 10321 10315 10307 10299 10292 10285 10278
10684 10684 10684 10684 10684 10684 10683 10683 10682 10681 10680 10679 10678 10676 10674 10672 10670 10668 10666 10663 10660 10657 10654 10651 10648 10644 10641 10638 10635 10631 10627 10623 10619 10615 10611 10607 10603 10599 10595 10590 10586 10581 10576 10571 10566 10561 10555 10550 10545 10539 10534 10528 10522 10515 10509 10502 10495 10489 10483 10475 10467 10461 10454 10446 10439 10434 10427 10416 10406 10396 10393 10395 10390 10374 10365 10358 10345 10336 10329 10323 10317 10310 10303 10296 10287 10279 10272 10265
10684 10684 10684 10684 10684 10684 10683 10682 10682 10681 10680 10678 10677 10675 10673 10671 10669 10666 10663 10660 10657 10655 10652 10648 10645 10642 10639 10636 10632 10628 10624 10620 10616 10613 10609 10606 10601 10597 10592 10587 10583 10578 10574 10569 10563 10558 10552 10546 10540 10534 10529 10524 10517 10510 10503 10497 10489 10482 10475 10469 10461 10454 10448 10440 10432 10425 10418 10407 10394 10385 10377 10380 10380 10361 10348 10343 10329 10320 10317 10309 10304 10297 10288 10281 10272 10265 10258 10251
10685 10684 10684 10684 10684 10684 10683 10682 10681 10680 10679 10677 10675 10673 10671 10668 10666 10663 10660 10658 10655 10652 10649 10646 10643 10640 10636 10633 10629 10625 10622 10618 10615 10611 10608 10604 10600 10595 10590 10585 10580 10575 10571 10566 10560 10554 10548 10541 10534 10528 10522 10517 10511 10504 10496 10490 10484 10477 10469 10462 10455 10448 10440 10432 10425 10415 10407 10396 10381 10369 10360 10363 10370 10351 10330 10326 10314 10304 10302 10295 10289 10282 10272 10265 10257 10250 10243 10234
10685 10685 10685 10685 10684 10684 10683 10682 10681 10679 10678 10676 10673 10671 10668 10665 10663 10661 10658 10656 10653 10650 10647 10644 10641 10638 10634 10630 10627 10624 10621 10618 10614 10609 10606 10602 10598 10594 10589 10584 10577 10571 10566 10561 10555 10549 10542 10535 10528 10521 10516 10510 10504 10497 10490 10484 10478 10471 10464 10456 10447 10440 10431 10422 10415 10406 10397 10388 10372 10358 10346 10342 10352 10340 10313 10305 10300 10292 10288 10281 10274 10267 10258 10251 10243 10235 10226 10217
10686 10686 10686 10685 10684 10683 10682 10681 10680 10678 10676 10673 10671 10668 10665 10663 10661 10659 10656 10654 10652 10649 10646 10643 10640 10636 10633 10630 10627 10624 10620 10616 10612 10608 10604 10600 10595 10591 10586 10581 10575 10568 10561 10555 10549 10543 10537 10530 10523 10516 10510 10503 10497 10490 10483 10476 10470 10463 10456 10449 10439 10431 10424 10415 10408 10400 10392 10384 10366 10351 10341 10330 10331 10327 10303 10287 10283 10278 10272 10265 10257 10249 10241 10234 10226 10217 10209 10202
10687 10686 10685 10684 10683 10682 10681 10679 10678 10675 10673 10671 10668 10666 10664 10661 10659 10657 10655 10653 10650 10647 10645 10642 10639 10637 10634 10630 10626 10622 10618 10614 10610 10606 10602 10597 10592 10586 10580 10574 10568 10562 10556 10549 10543 10537 10531 10524 10516 10510 10503 10497 10490 10482 10475 10467 10460 10454 10448 10443 10435 10426 10418 10408 10400 10394 10386 10378 10361 10344 10338 10325 10312 10309 10297 10282 10272 10264 10256 10248 10240 10233 10225 10218 10210 10199 10192 10188
10686 10686 10685 10683 10682 10681 10679 10677 10675 10673 10671 10668 10666 10664 10662 10660 10658 10656 10654 10652 10649 10646 10644 10641 10639 10636 10632 10629 10624 10620 10616 10612 10607 10602 10597 10591 10585 10579 10573 10567 10560 10554 10547 10541 10535 10529 10523 10517 10510 10503 10495 10489 10482 10475 10469 10462 10454 10447 10440 10435 10430 10422 10412 10400 10391 10384 10376 10369 10355 10339 10334 10323 10302 10289 10282 10276 10267 10255 10245 10235 10225 10219 10213 10205 10195 10183 10177 10173
10686 10685 10683 10682 10680 10679 10677 10675 10673 10671 10669 10667 10665 10662 10660 10658 10657 10655 10653 10651 10648 10646 10643 10640 10637 10634 10631 10628 10624 10620 10615 10610 10605 10600 10594 10589 10583 10578 10572 10566 10559 10552 10545 10537 10531 10525 10518 10512 10505 10498 10490 10483 10477 10470 10463 10456 10448 10439 10431 10424 10419 10414 10408 10397 10385 10377 10370 10362 10346 10328 10321 10313 10297 10281 10271 10268 10261 10250 10239 10225 10214 10208 10201 10192 10181 10171 10164 10158
10684 10683 10682 10681 10679 10677 10676 10673 10671 10669 10667 10665 10663 10661 10660 10658 10657 10655 10652 10651 10648 10646 10643 10639 10637 10634 10631 10627 10623 10619 10614 10609 10605 10599 10594 10589 10584 10579 10572 10565 10558 10551 10544 10536 10528 10521 10514 10508 10501 10494 10488 10480 10472 10464 10455 10447 10438 10429 10420 10412 10404 10396 10391 10384 10372 10362 10358 10353 10340 10321 10306 10292 10278 10268 10261 10256 10247 10238 10228 10214 10204 10200 10191 10179 10168 10157 10147 10139
10683 10682 10681 10679 10678 10676 10673 10671 10670 10668 10666 10664 10663 10661 10660 10658 10657 10655 10652 10651 10648 10646 10644 10640 10638 10634 10630 10627 10622 10618 10613 10608 10603 10598 10593 10587 10581 10575 10568 10561 10554 10547 10540 10533 10525 10517 10509 10503 10497 10489 10481 10473 10464 10455 10445 10436 10428 10420 10409 10398 10388 10378 10370 10364 10352 10340 10335 10337 10331 10316 10298 10274 10251 10245 10245 10240 10231 10223 10213 10202 10195 10191 10179 10166 10157 10145 10132 10123
10682 10681 10680 10678 10676 10673 10672 10670 10668 10667 10666 10665 10662 10661 10660 10658 10657 10655 10653 10651 10649 10646 10644 10641 10638 10634 10630 10625 10621 10616 10611 10606 10601 10595 10590 10583 10577 10571 10564 10557 10550 10543 10536 10529 10521 10514 10504 10496 10490 10483 10473 10465 10456 10446 10436 10427 10417 10409 10398 10388 10379 10368 10358 10351 10341 10328 10318 10318 10315 10303 10290 10266 10237 10230 10231 10224 10216 10205 10193 10185 10181 10175 10165 10155 10146 10134 10121 10111
10682 10680 10678 10676 10674 10672 10671 10670 10668 10667 10666 10664 10662 10662 10661 10659 10657 10655 10653 10651 10649 10646 10643 10640 10637 10633 10628 10624 10619 10614 10609 10604 10599 10593 10587 10580 10574 10568 10561 10554 10547 10540 10533 10525 10518 10511 10501 10490 10481 10474 10466 10457 10449 10440 10429 10418 10408 10399 10389 10379 10370 10358 10347 10340 10334 10326 10313 10307 10301 10289 10278 10256 10227 10220 10218 10205 10195 10185 10174 10170 10167 10160 10151 10141 10131 10118 10106 10099
10680 10679 10676 10674 10673 10672 10671 10669 10668 10668 10666 10665 10664 10663 10661 10659 10658 10656 10654 10652 10649 10646 10642 10639 10635 10631 10626 10622 10618 10613 10607 10602 10596 10590 10584 10577 10571 10564 10557 10550 10543 10536 10529 10521 10514 10506 10499 10489 10477 10469 10461 10452 10444 10435 10424 10413 10402 10394 10384 10372 10361 10351 10342 10328 10316 10311 10303 10297 10292 10279 10265 10239 10211 10207 10204 10190 10180 10170 10163 10162 10156 10148 10138 10125 10115 10103 10093 10088
10679 10677 10675 10674 10673 10672 10671 10670 10669 10668 10667 10666 10666 10664 10662 10660 10658 10656 10654 10651 10648 10645 10641 10638 10634 10630 10626 10622 10617 10611 10606 10600 10594 10588 10582 10575 10568 10562 10555 10547 10540 10533 10525 10518 10510 10502 10494 10486 10475 10464 10455 10446 10438 10428 10419 10409 10398 10387 10375 10365 10353 10342 10334 10320 10301 10290 10283 10280 10279 10272 10259 10228 10198 10195 10192 10179 10170 10159 10154 10155 10145 10136 10125 10109 10101 10094 10085 10079
10678 10676 10675 10674 10673 10673 10672 10671 10669 10668 10668 10668 10666 10664 10662 10661 10659 10657 10654 10651 10648 10644 10641 10637 10633 10630 10626 10621 10616 10611 10605 10599 10593 10586 10580 10573 10566 10559 10551 10545 10537 10530 10522 10513 10506 10497 10489 10481 10471 10459 10448 10439 10431 10421 10410 10399 10389 10378 10365 10355 10346 10332 10322 10312 10296 10281 10269 10263 10260 10257 10250 10221 10188 10186 10185 10172 10162 10151 10144 10145 10135 10124 10113 10096 10087 10083 10077 10069
10678 10676 10676 10674 10674 10674 10672 10670 10670 10671 10671 10668 10666 10665 10663 10662 10659 10657 10654 10651 10648 10644 10640 10637 10633 10629 10625 10620 10615 10610 10604 10598 10591 10584 10578 10571 10564 10556 10548 10541 10533 10525 10517 10509 10500 10492 10483 10475 10467 10456 10444 10432 10422 10412 10401 10388 10377 10369 10357 10345 10337 10326 10316 10305 10293 10278 10261 10250 10243 10235 10233 10212 10179 10174 10177 10163 10150 10141 10134 10132 10123 10110 10099 10086 10076 10069 10064 10058
10678 10677 10676 10675 10675 10675 10672 10672 10673 10673 10671 10668 10667 10666 10664 10662 10660 10657 10654 10651 10647 10644 10640 10637 10633 10629 10624 10619 10614 10609 10603 10596 10589 10582 10575 10568 10560 10553 10545 10537 10529 10521 10512 10504 10496 10487 10478 10469 10460 10451 10440 10429 10418 10406 10395 10384 10373 10364 10354 10341 10329 10317 10306 10293 10284 10276 10260 10245 10236 10223 10217 10204 10170 10153 10156 10147 10135 10129 10123 10118 10110 10096 10084 10075 10066 10056 10051 10047
10679 10678 10677 10677 10677 10675 10674 10675 10675 10673 10671 10670 10669 10667 10665 10663 10660 10657 10654 10651 10648 10644 10640 10636 10632 10628 10623 10618 10613 10607 10601 10594 10587 10580 10572 10564 10557 10549 10541 10533 10524 10516 10507 10499 10490 10481 10473 10464 10455 10445 10434 10423 10413 10402 10392 10381 10370 10362 10352 10339 10325 10309 10296 10280 10265 10260 10252 10239 10232 10225 10218 10205 10173 10148 10144 10138 10128 10120 10112 10104 10095 10084 10073 10066 10058 10048 10041 10037
10680 10679 10678 10678 10678 10677 10677 10677 10675 10673 10672 10671 10669 10667 10665 10663 10660 10657 10654 10651 10648 10644 10640 10636 10631 10626 10622 10616 10611 10605 10599 10592 10585 10577 10570 10562 10554 10546 10537 10529 10520 10511 10502 10493 10485 10475 10466 10458 10450 10443 10434 10422 10413 10403 10393 10381 10367 10354 10342 10331 10318 10303 10291 10278 10259 10248 10240 10225 10213 10210 10210 10201 10177 10154 10143 10133 10123 10115 10106 10097 10086 10074 10066 10058 10050 10043 10036 10030
10681 10680 10680 10680 10679 10679 10679 10678 10675 10674 10673 10671 10670 10668 10665 10663 10661 10658 10655 10652 10648 10644 10640 10635 10630 10625 10620 10614 10609 10603 10597 10590 10583 10575 10567 10559 10551 10542 10533 10524 10515 10506 10497 10488 10479 10469 10458 10447 10438 10432 10426 10418 10410 10399 10389 10376 10360 10344 10329 10318 10311 10299 10286 10275 10262 10250 10241 10224 10202 10189 10195 10196 10175 10150 10136 10124 10115 10109 10102 10094 10081 10068 10061 10054 10045 10038 10031 10024
10682 10682 10681 10681 10681 10681 10680 10678 10676 10676 10674 10672 10670 10668 10666 10664 10661 10658 10655 10652 10648 10643 10639 10634 10629 10624 10619 10613 10607 10600 10594 10587 10580 10572 10564 10556 10547 10538 10529 10520 10511 10501 10492 10483 10473 10463 10452 10440 10426 10415 10406 10396 10386 10377 10368 10357 10346 10334 10322 10310 10302 10294 10281 10267 10255 10247 10239 10229 10207 10182 10177 10182 10170 10146 10128 10116 10109 10104 10098 10090 10076 10063 10056 10049 10040 10033 10025 10018
10683 10683 10683 10683 10683 10682 10680 10678 10677 10676 10674 10673 10671 10669 10667 10665 10662 10659 10655 10651 10647 10643 10638 10633 10628 10623 10617 10611 10605 10599 10592 10585 10577 10569 10561 10552 10544 10535 10525 10516 10507 10497 10488 10478 10469 10458 10447 10436 10421 10407 10395 10383 10372 10362 10353 10344 10336 10327 10318 10308 10295 10284 10274 10259 10248 10241 10233 10225 10215 10189 10164 10158 10154 10138 10120 10107 10102 10100 10095 10084 10072 10061 10051 10042 10034 10027 10019 10012
10685 10685 10685 10684 10684 10682 10681 10680 10678 10677 10675 10674 10672 10670 10668 10665 10662 10658 10655 10651 10647 10642 10637 10632 10627 10622 10616 10610 10603 10596 10589 10582 10574 10566 10558 10549 10540 10532 10522 10513 10503 10494 10484 10473 10464 10454 10443 10432 10419 10405 10391 10380 10368 10358 10349 10340 10331 10322 10312 10301 10289 10277 10268 10255 10239 10231 10222 10213 10208 10198 10174 10154 10143 10131 10112 10096 10090 10092 10090 10077 10064 10054 10045 10035 10027 10019 10012 10005
10686 10686 10686 10685 10684 10683 10682 10681 10680 10678 10676 10674 10673 10671 10668 10665 10662 10658 10655 10651 10646 10642 10637 10632 10627 10621 10615 10609 10602 10595 10587 10579 10570 10562 10554 10546 10538 10529 10519 10510 10500 10490 10480 10470 10460 10451 10440 10428 10417 10403 10389 10377 10365 10356 10349 10338 10325 10314 10302 10291 10281 10272 10264 10250 10230 10217 10209 10197 10187 10182 10170 10150 10134 10125 10110 10090 10079 10079 10079 10069 10055 10044 10034 10026 10019 10011 10004 9999
10688 10688 10688 10687 10686 10684 10683 10682 10680 10679 10677 10675 10673 10671 10668 10665 10662 10658 10655 10650 10646 10641 10637 10632 10627 10621 10614 10608 10601 10594 10586 10578 10569 10561 10552 10544 10535 10526 10517 10507 10497 10487 10477 10467 10456 10446 10436 10424 10413 10401 10387 10376 10364 10353 10344 10335 10322 10309 10298 10288 10278 10267 10253 10239 10226 10215 10205 10190 10172 10160 10153 10141 10126 10115 10103 10083 10069 10067 10066 10059 10049 10039 10027 10019 10012 10005 9999 9994
10689 10689 10689 10688 10687 10685 10684 10682 10681 10679 10678 10676 10674 10671 10668 10665 10662 10658 10654 10650 10645 10641 10636 10631 10625 10619 10613 10607 10600 10592 10584 10576 10568 10559 10550 10541 10532 10523 10513 10504 10494 10484 10473 10463 10452 10441 10430 10420 10410 10399 10388 10376 10366 10353 10340 10329 10318 10306 10297 10287 10275 10262 10248 10232 10221 10214 10204 10191 10173 10154 10143 10135 10124 10111 10095 10074 10060 10060 10058 10051 10045 10038 10027 10018 10010 10002 9994 9989
10691 10690 10690 10689 10687 10686 10685 10683 10682 10680 10678 10676 10674 10672 10668 10665 10661 10657 10653 10649 10644 10640 10635 10630 10624 10618 10612 10605 10598 10590 10582 10573 10565 10557 10548 10539 10529 10519 10510 10500 10490 10480 10470 10459 10448 10438 10428 10417 10407 10398 10386 10371 10359 10350 10340 10328 10316 10304 10295 10283 10268 10257 10246 10227 10207 10196 10186 10176 10169 10157 10145 10135 10123 10111 10097 10075 10055 10052 10052 10046 10038 10033 10025 10014 10005 9996 9986 9981
10692 10691 10690 10689 10688 10687 10685 10684 10682 10681 10679 10677 10674 10672 10668 10665 10661 10657 10652 10648 10643 10639 10634 10628 10623 10617 10610 10604 10596 10588 10580 10571 10563 10554 10544 10535 10526 10517 10507 10497 10486 10476 10465 10455 10444 10434 10424 10414 10403 10393 10382 10368 10354 10342 10331 10321 10311 10299 10286 10274 10262 10250 10240 10223 10203 10189 10177 10163 10155 10150 10141 10129 10116 10106 10097 10078 10053 10041 10043 10039 10030 10025 10018 10008 9999 9990 9981 9974